Location: Poughquag
(41.6090°N, 73.6820°W)
Time: 12:52:52
(UTC-04:00)

Transit 4A - Pass Details

Date: 04 June 2020
Orbit: 866 x 978 km, 66.8° (Epoch: 06 July)

Event Time Altitude Azimuth Distance (km) Brightness Sun altitude
Rises 00:21:31 0° 177° (S) 3,432 - -25.5°
Reaches altitude 10° 00:24:16 10° 166° (SSE) 2,502 - -25.6°
Maximum altitude 00:29:07 29° 108° (ESE) 1,557 - -25.7°
Exits shadow 00:29:35 28° 100° (E) 1,569 8.9 -25.7°
Drops below altitude 10° 00:34:03 10° 51° (NE) 2,547 10.6 -25.8°
Sets 00:36:52 0° 40° (NE) 3,506 11.6 -25.8°
